TimeMDT,TemperatureF,Dew PointF,Humidity,Sea Level PressureIn,VisibilityMPH,Wind Direction,Wind SpeedMPH,Gust SpeedMPH,PrecipitationIn,Events,Conditions,WindDirDegrees,DateUTC
12:51 AM,64.9,45.0,48,29.78,10.0,Calm,Calm,-,N/A,,Clear,0,2013-07-11 06:51:00
1:51 AM,57.9,44.1,60,29.79,10.0,Calm,Calm,-,N/A,,Clear,0,2013-07-11 07:51:00
2:51 AM,60.1,45.0,57,29.78,10.0,Calm,Calm,-,N/A,,Clear,0,2013-07-11 08:51:00
3:51 AM,57.9,45.0,62,29.78,10.0,Calm,Calm,-,N/A,,Clear,0,2013-07-11 09:51:00
4:51 AM,63.0,43.0,48,29.78,10.0,South,5.8,-,N/A,,Clear,180,2013-07-11 10:51:00
5:51 AM,57.0,48.0,72,29.82,10.0,Calm,Calm,-,N/A,,Clear,0,2013-07-11 11:51:00
6:51 AM,55.0,48.0,77,29.82,10.0,Calm,Calm,-,N/A,,Clear,0,2013-07-11 12:51:00
7:51 AM,63.0,46.0,54,29.84,10.0,Calm,Calm,-,N/A,,Clear,0,2013-07-11 13:51:00
8:51 AM,64.9,48.9,56,29.87,10.0,West,5.8,-,N/A,,Clear,280,2013-07-11 14:51:00
9:51 AM,69.1,44.1,40,29.85,10.0,NNW,9.2,-,N/A,,Scattered Clouds,340,2013-07-11 15:51:00
10:51 AM,73.9,42.1,32,29.84,10.0,NE,11.5,-,N/A,,Partly Cloudy,40,2013-07-11 16:51:00
11:51 AM,75.9,44.1,32,29.86,10.0,Calm,Calm,-,N/A,,Clear,0,2013-07-11 17:51:00
12:51 PM,80.1,37.0,21,29.86,10.0,Variable,3.5,-,N/A,,Clear,0,2013-07-11 18:51:00
1:51 PM,84.0,39.9,21,29.84,10.0,Variable,6.9,-,N/A,,Clear,0,2013-07-11 19:51:00
2:51 PM,89.1,37.9,16,29.78,10.0,NNW,10.4,-,N/A,,Clear,340,2013-07-11 20:51:00
3:51 PM,91.0,37.0,15,29.77,10.0,NE,6.9,-,N/A,,Clear,40,2013-07-11 21:51:00
4:51 PM,88.0,39.0,18,29.77,10.0,North,10.4,16.1,N/A,,Mostly Cloudy,360,2013-07-11 22:51:00
5:51 PM,81.0,46.9,30,29.83,10.0,North,23.0,29.9,N/A,,Partly Cloudy,10,2013-07-11 23:51:00
6:51 PM,75.9,46.0,35,29.90,10.0,North,17.3,24.2,N/A,,Mostly Cloudy,10,2013-07-12 00:51:00
7:51 PM,72.0,46.9,41,29.91,10.0,North,18.4,23.0,0.00,Rain,Light Rain,10,2013-07-12 01:51:00
8:51 PM,69.1,46.9,45,29.91,10.0,NW,10.4,-,0.00,,Partly Cloudy,320,2013-07-12 02:51:00
9:51 PM,66.0,51.1,59,29.94,10.0,Calm,Calm,-,N/A,,Clear,0,2013-07-12 03:51:00
10:51 PM,64.9,51.1,61,29.91,10.0,SW,4.6,-,N/A,,Clear,220,2013-07-12 04:51:00
11:51 PM,66.9,50.0,54,29.89,10.0,SSE,6.9,-,N/A,,Clear,160,2013-07-12 05:51:00